THOR ABLESTAR DEB, 159

Orbit data source: Space-Track

THOR ABLESTAR DEB, 159 is space debris in LEO originally from a launch on Thu, 29 Jun 1961 UTC launched from the Air Force Eastern Test Range (AFETR). Debris objects in space refer to the collection of defunct objects orbiting the Earth. Examples of debris include non-operational satellites, rocket bodies, and fragments generated from explosions, collisions, or faulty payload assembly.

Loading next visibility...
Identifier
159, 1961-015AV
Orbit
LEO
Country
Flag of USUS
Related business
Manufacturer
Unknown
Mission
Spacecraft
Bus & Motor
Unknown
Mass
Unknown
Launch date (UTC)
1961-06-29 (64 years ago)
Launch vehicle
Unknown
Launch site
Air Force Eastern Test Range (AFETR)
Object type
Payload
Rocket body
Debris
Shape & HBR
Unknown
Radar Cross Section
Medium (>0.1 m² and <1 m²)

Expand to show TLE details & history
Last TLE update: 9 hours ago

TLE from 9 hours ago
0 THOR ABLESTAR DEB
1 00159U 61015AV  25261.87072087 -.00000105  00000-0 -81282-4 0  9996
2 00159  65.5244 114.5017 0376288 262.3357  93.4790 13.02929401 45501
Epoch: 2025-09-18T20:53Z
TLE epoch observation values (Epoch: 2025-09-18T20:53:50.283Z)
Latitude
0.00007°
Longitude
163.01611°
Altitude
1,280.665 km
Speed
7.203 km/s
True Right ascension
07h 38m 00s
True Declination
0° 00' 00"
Sunlit
Object was in daylight at epoch
Visualization orbit readout
Latitude
Unknown
Longitude
Unknown
Altitude
Unknown
Speed
Unknown
Apparent Right ascension
Unknown
Apparent Declination
Unknown
Sunlit
N/A
Visualization observer readout
Local Sidereal Time
22:47:04
Azimuth
Unknown
Elevation
Unknown
Doppler factor
Unknown
Orbital elements
Apogee altitude
1,536.245 km
Perigee altitude
962.227 km
Semi-major axis
7,627.373 km
Eccentricity
0.03763
Inclination
65.5244°
RAAN
114.5017°
Arg. of periapsis
262.3357°
True anomaly
97.76674°
Mean anomaly
93.479°
Eccentric anomaly
95.62459°
Mean motion
3.25822 °/min
Orbital period
110.49 mins
BSTAR
-0.000081282
Loading maneuver chart data...
Computing Atmospheric mass density...

Documentation

Showing up to 5 results
|